Location: Unspecified
(40.7945°N, 111.1337°W)
Time: 20:08:06
(UTC-06:00)

Vanguard 1 - Pass Details

Date: 26 June 2019
Orbit: 653 x 3830 km, 34.3° (Epoch: 22 July)

Event Time Altitude Azimuth Distance (km) Brightness Sun altitude
Rises 07:48:17 0° 278° (W) 6,441 13.7 18.8°
Reaches altitude 10° 07:53:31 10° 272° (W) 4,887 13.1 19.8°
Maximum altitude 08:04:37 40° 210° (SSW) 2,043 11.6 21.8°
Drops below altitude 10° 08:11:03 10° 142° (SE) 2,842 12.9 23.0°
Sets 08:13:18 0° 134° (SE) 3,550 13.4 23.4°
